User: anonymous   Login
Location: Haliburton Scout Reserve
(45.0900°N, 78.3200°W)
Time: 06:48:50
(UTC-04:00)
Language:

FO-29 - Orbit

View from above orbital plane
View from above orbital plane
View from above satellite
View from above satellite

Ground track
Ground track

The orbit data is extracted from the following two-line orbital elements,

1 24278U 96046B   22141.88762316 -.00000017  00000-0  20036-4 0  9993
2 24278  98.5181 169.2250 0350127 352.4258   7.1674 13.53114763272010
Epoch (UTC): 21 May 2022 21:18:10
Eccentricity: 0.0350127
inclination: 98.5181°
perigee height: 800 km
apogee height: 1321 km
right ascension of ascending node: 169.2250°
argument of perigee: 352.4258°
revolutions per day: 13.53114763
mean anomaly at epoch: 7.1674°
orbit number at epoch: 27201

The dashed part of the orbit path shows where the satellite is in the earth's shadow,  

DLR